Location: Kumla
(59.1265°N, 15.1401°E)
Time: 02:11:56
(UTC+01:00)

Vanguard 2 Rocket - Pass Details

Date: 12 December 2023
Orbit: 554 x 3310 km, 32.9° (Epoch: 20 February)

Event Time Altitude Azimuth Distance (km) Brightness Sun altitude
Rises 13:43:29 0° 227° (SW) 5,802 12.6 4.7°
Reaches altitude 10° 13:47:51 10° 215° (SW) 5,182 13.1 4.5°
Maximum altitude 13:59:50 26° 167° (SSE) 4,712 11.3 3.7°
Drops below altitude 10° 14:14:12 10° 122° (ESE) 6,267 11.2 2.8°
Sets 14:20:15 0° 112° (ESE) 7,221 11.4 2.4°
